Home   Weather   Bellingham   Past weeks

Flag for USA Past Weather in Bellingham, Washington, USA — Yesterday and Last 2 Weeks

Now
47 °F

Light rain. Mostly cloudy.


Feels Like: 40 °F
Forecast: 44 / 47 °F
Wind: 17 mph from Southeast

Location: Bellingham International Airport

Current Time: Jan 19, 2017 at 2:57:14 am

Latest Report: Jan 19, 2017 at 1:53 am


Visibility: 10 mi

Pressure: 29.39 "Hg

Humidity: 90%

Dew Point: 44 °F

Location of BellinghamLocation

Past Weather in Bellingham — Graph

°F

Bellingham Temperature Yesterday

Maximum temperature yesterday: 56 °F (at 1:53 pm)
Minimum temperature yesterday: 46 °F (at 7:53 pm)
Average temperature yesterday: 52 °F

High & Low Weather Summary for the Past Weeks

 TemperatureHumidityPressure
High57 °F (Jan 17, 11:53 am)100% (Jan 8, 10:53 pm)30.50 "Hg (Jan 8, 10:53 pm)
Low15 °F (Jan 12, 4:53 am)26% (Jan 11, 11:53 am)29.21 "Hg (Jan 18, 8:10 pm)
Average34 °F68%29.96 "Hg
* Reported Jan 4 1:53 am — Jan 19 1:53 am, Bellingham, Weather by CustomWeather, © 2017

Note: Actual official high and low records may vary slightly from our data, if they occured in-between our weather recording intervals... More about our weather records

Advertising

Bellingham Weather History for the Previous 24 Hours

Scroll right to see more
 ConditionsComfort  
Time TempWeatherWind HumidityBarometerVisibility
1:53 am
Thu, Jan 19
47 °FLight rain. Mostly cloudy.17 mph90%29.39 "Hg10 mi
12:53 am46 °FLight rain. Overcast.13 mph93%29.36 "Hg7 mi
12:27 am47 °FLight rain. Fog.10 mph90%29.31 "Hg5 mi
12:16 am47 °FLight rain. Fog.17 mph90%29.29 "Hg5 mi
11:53 pm
Wed, Jan 18
48 °FRain. Fog.22 mph89%29.29 "Hg6 mi
10:53 pm50 °FLight rain. Mostly cloudy.24 mph80%29.25 "Hg9 mi
9:53 pm48 °FLight rain. Overcast.15 mph93%29.24 "Hg10 mi
9:10 pm47 °FRain. Fog.3 mph97%29.23 "Hg5 mi
8:53 pm46 °FLight rain. Fog.No wind100%29.24 "Hg5 mi
8:37 pm47 °FLight rain. Fog.No wind100%29.22 "Hg5 mi
8:10 pm46 °FLight rain. Fog.6 mph100%29.21 "Hg4 mi
7:53 pm46 °FLight rain. Fog.3 mph100%29.23 "Hg5 mi
6:53 pm50 °FLight rain. Mostly cloudy.5 mph93%29.25 "Hg8 mi
5:53 pm50 °FLight rain. Overcast.5 mph93%29.26 "Hg9 mi
5:00 pm52 °FLight rain. Mostly cloudy.13 mph83%29.25 "Hg10 mi
3:53 pm54 °FLight rain. Overcast.21 mph80%29.27 "Hg10 mi
3:39 pm55 °FOvercast.17 mph74%29.26 "Hg10 mi
2:53 pm55 °FMostly cloudy.13 mph74%29.28 "Hg10 mi
1:53 pm56 °FMore clouds than sun.20 mph72%29.28 "Hg10 mi
12:53 pm55 °FOvercast.16 mph74%29.30 "Hg10 mi
11:53 am55 °FMostly cloudy.18 mph74%29.29 "Hg10 mi
10:53 am55 °FOvercast.23 mph74%29.28 "Hg10 mi
9:53 am54 °FBroken clouds.20 mph80%29.26 "Hg10 mi
8:53 am53 °FRain. More clouds than sun.22 mph83%29.28 "Hg5 mi
7:53 am48 °FOvercast.7 mph93%29.29 "Hg10 mi
6:53 am52 °FLight rain. Overcast.15 mph89%29.31 "Hg8 mi
5:53 am53 °FLight rain. Mostly cloudy.20 mph83%29.32 "Hg10 mi
5:25 am54 °FMostly cloudy.17 mph77%29.32 "Hg10 mi
4:53 am53 °FLight rain. Overcast.21 mph80%29.34 "Hg10 mi
4:22 am54 °FMostly cloudy.12 mph77%29.34 "Hg10 mi
3:53 am54 °FOvercast.15 mph77%29.36 "Hg10 mi
3:03 am54 °FOvercast.24 mph77%29.35 "Hg10 mi
2:53 am53 °FMostly cloudy.18 mph80%29.36 "Hg10 mi
2:07 am53 °FPassing clouds.18 mph80%29.36 "Hg10 mi
Weather by CustomWeather, © 2017

See weather overviewHow to use our weather pages